sat.trackr.live / text

‹ back to catalog

STARLINK-3259

NORAD 50192 · 2021-125AN

PAYLOAD ACTIVE UNKNOWN

§ Identity

Operator
Country
US
Launch date
2021-12-18
Launch site
AFWTR
Launch vehicle
Mass (kg)
RCS (m²)

Purposes: comms

External: N2YO · Heavens-Above · Gunter

§ Orbital elements

Epoch: 2026-05-24T19:26:07.353312Z

Period
95.44 min
Inclination
53.2144°
Eccentricity
0.0001255
Mean motion
15.08836401 rev/d
Perigee alt
538.9 km
Apogee alt
540.6 km
Semi-major
6,917.9 km
B*
2.5853e-5
RAAN
257.3995°
Arg perigee
110.6897°
Mean anomaly
249.4230°
Rev number
24,822

§ Raw data

STARLINK-32591 50192U 21125AN  26144.80980733  .00000124  00000+0  25853-4 0  99962 50192  53.2144 257.3995 0001255 110.6897 249.4230 15.08836401248221

JSON: /api/v1/satellites/50192 · /tle

For live sub-satellite position, see the globe view (requires WebGL).

§ Visibility from observer

Set your observer location to see the next 7 days of passes ≥ 10°. The values pass through the URL so the page stays shareable.

No JS? Fill the form by hand. The geolocation button needs JavaScript.